Stations météo

réclame
Mon MeteoGroup
Cognac, France (7412): Température de l'air & dewpoint: 19.09.2018 09:00:00 - 25.09.2018 09:00:00 (CEST)Cognac, France (7412): Température de l'air 5cm: 19.09.2018 09:00:00 - 25.09.2018 09:00:00 (CEST)Cognac, France (7412): Température de l'air -20cm & Température de l'air -100cm: 19.09.2018 09:00:00 - 25.09.2018 09:00:00 (CEST)Cognac, France (7412): Vitesse du vent & gusts: 19.09.2018 09:00:00 - 25.09.2018 09:00:00 (CEST)Cognac, France (7412): Direction du vent: 19.09.2018 09:00:00 - 25.09.2018 09:00:00 (CEST)Cognac, France (7412): reduced air pressure: 19.09.2018 09:00:00 - 25.09.2018 09:00:00 (CEST)Cognac, France (7412): visibility: 19.09.2018 09:00:00 - 25.09.2018 09:00:00 (CEST)Cognac, France (7412): Ensoleillement: 19.09.2018 09:00:00 - 25.09.2018 09:00:00 (CEST)Cognac, France (7412): Quantités de précipitations: 19.09.2018 09:00:00 - 25.09.2018 09:00:00 (CEST)
Date & Time tt [°C] td [°C] tt 5cm [°C] tt -20cm [°C] tt -100cm [°C] ff [km/h] ff [knt] fx [km/h] fx [knt] dd ppp [hPa] vv [km] sd [min] rr [mm]
25.09.2018 09:00:00 11,1 5,0 9,5 19,6 20,3 23 13 36 19 NNE 1031,0 18 47 0,0
25.09.2018 08:00:00 10,1 4,9 9,1 19,7 20,3 21 11 32 17 NNE 1030,7 55 0 0,0
25.09.2018 07:00:00 10,2 4,8 9,3 19,8 20,4 20 11 31 17 NNE 1030,5 60 0 0,0
25.09.2018 06:00:00 10,7 4,6 9,8 19,9 20,4 21 12 35 19 NNE 1031,2 60 0 0,0
25.09.2018 05:00:00 11,1 4,5 10,2 19,9 20,4 19 10 33 18 NNE 1031,7 60 0 0,0
25.09.2018 04:00:00 11,6 4,6 10,7 20,0 20,4 22 12 32 17 NNE 1032,0 60 0 0,0
25.09.2018 03:00:00 12,0 4,2 11,0 20,0 20,4 23 12 35 19 NNE 1032,3 60 0 0,0
25.09.2018 02:00:00 12,4 4,4 11,5 20,1 20,4 23 12 31 17 NNE 1032,6 60 0 0,0
25.09.2018 01:00:00 12,9 4,6 11,7 20,1 20,4 17 9 28 15 NE 1032,6 20 0 0,0
25.09.2018 00:00:00 13,2 4,9 12,2 20,1 20,4 17 9 28 15 NNE 1032,7 60 0 0,0
24.09.2018 23:00:00 13,6 5,2 12,4 20,1 20,4 18 10 24 13 NNE 1032,5 60 0 0,0
24.09.2018 22:00:00 14,0 5,6 13,2 20,1 20,4 14 7 21 11 NNE 1032,4 60 0 0,0
24.09.2018 21:00:00 14,8 5,8 13,9 20,1 20,4 14 7 31 17 NNE 1032,4 60 0 0,0
24.09.2018 20:00:00 16,1 6,0 15,3 20,0 20,4 23 12 47 25 NNE 1032,0 60 33 0,0
24.09.2018 19:00:00 17,5 5,1 17,7 20,0 20,4 32 18 48 26 NE 1031,4 28 60 0,0
24.09.2018 18:00:00 18,2 5,1 19,0 20,0 20,4 32 18 51 27 NNE 1030,9 18 60 0,0
24.09.2018 17:00:00 19,2 4,5 20,3 20,0 20,5 35 19 49 27 NE 1031,3 18 60 0,0
24.09.2018 16:00:00 18,3 5,2 20,9 20,1 20,4 32 17 50 27 NNE 1031,8 20 60 0,0
24.09.2018 15:00:00 17,7 5,0 21,1 20,1 20,4 32 18 52 28 NNE 1032,2 22 60 0,0
24.09.2018 14:00:00 17,3 5,2 21,3 20,2 20,5 28 15 46 25 NNE 1032,7 23 60 0,0
24.09.2018 13:00:00 16,6 4,9 19,0 20,3 20,5 31 17 49 26 NE 1033,3 26 60 0,0
24.09.2018 12:00:00 14,7 6,3 16,5 20,4 20,5 26 14 42 23 NNE 1033,3 28 60 0,0
24.09.2018 11:00:00 13,2 7,0 15,2 20,5 20,4 23 13 39 21 NE 1033,4 27 60 0,0
24.09.2018 10:00:00 11,6 6,5 12,2 20,6 20,5 25 13 36 20 NE 1033,1 25 60 0,0
24.09.2018 09:00:00 9,9 6,4 8,5 20,6 20,5 12 6 21 11 NNE 1032,6 38 48 0,0
24.09.2018 08:00:00 8,9 6,2 8,2 20,7 20,5 16 8 22 12 N 1032,0 53 0 0,0
24.09.2018 07:00:00 9,4 6,3 8,6 20,7 20,5 16 9 26 14 N 1031,2 59 0 0,0
24.09.2018 06:00:00 10,2 6,0 9,5 20,8 20,5 18 10 29 16 NNE 1030,6 60 0 0,0
24.09.2018 05:00:00 10,9 6,0 10,1 20,9 20,5 15 8 39 21 NNE 1030,2 60 0 0,0
24.09.2018 04:00:00 12,2 6,7 11,5 20,9 20,5 26 14 46 25 NNE 1029,8 60 0 0,0
24.09.2018 03:00:00 13,4 8,7 13,0 20,9 20,5 31 17 46 25 NNE 1029,3 59 0 0,0
24.09.2018 02:00:00 14,6 10,2 14,2 20,9 20,5 23 12 40 22 N 1028,7 60 0 0,0
24.09.2018 01:00:00 15,2 11,6 13,9 20,9 20,5 23 13 39 21 NNE 1027,9 60 0 0,0
24.09.2018 00:00:00 15,4 12,3 13,8 20,9 20,5 34 18 61 33 NNE 1027,3 14 0 0,0
23.09.2018 23:00:00 16,3 13,4 15,4 20,9 20,5 26 14 44 24 N 1026,3 58 0 0,0
23.09.2018 22:00:00 18,4 17,2 17,8 20,9 20,5 10 6 18 10 WNW 1024,7 49 0 0,0
23.09.2018 21:00:00 18,8 17,6 18,2 20,9 20,5 9 5 27 14 WNW 1023,9 12 0 0,4
23.09.2018 20:00:00 20,1 19,1 19,6 20,9 20,5 15 8 28 15 WNW 1023,0 47 0 0,0
23.09.2018 19:00:00 20,4 19,4 20,1 20,9 20,5 18 10 29 16 W 1022,3 6 0 0,2
23.09.2018 18:00:00 20,5 19,5 20,2 20,9 20,5 20 11 33 18 W 1022,1 4,2 0 0,0
23.09.2018 17:00:00 20,6 19,4 20,4 20,9 20,5 21 11 39 21 WSW 1022,0 4,3 0 0,0
23.09.2018 16:00:00 21,1 19,2 21,5 20,9 20,5 24 13 39 21 WSW 1021,7 9 0 0,0
23.09.2018 15:00:00 21,5 18,7 22,2 20,9 20,5 22 12 42 23 WSW 1022,1 28 0 0,0
23.09.2018 14:00:00 21,5 18,5 21,5 20,9 20,5 29 15 42 23 W 1022,4 20 0 0,0
23.09.2018 13:00:00 22,2 18,2 22,7 20,9 20,6 28 15 41 22 WSW 1022,2 35 0 0,0
23.09.2018 12:00:00 21,8 18,0 21,8 20,9 20,5 24 13 33 18 SW 1022,1 39 0 0,0
23.09.2018 11:00:00 21,2 18,0 21,3 20,9 20,6 20 11 35 19 SW 1022,1 42 0 0,0
23.09.2018 10:00:00 20,9 17,9 21,1 20,9 20,6 21 11 37 20 WSW 1022,0 41 0 0,0
23.09.2018 09:00:00 20,6 18,2 19,9 21,0 20,6 21 11 30 16 SW 1021,6 42 0 0,0
23.09.2018 08:00:00 19,9 18,2 19,7 21,0 20,6 17 9 28 15 SW 1021,8 29 0 0,0
23.09.2018 07:00:00 19,9 17,9 19,7 21,0 20,6 13 7 19 11 SW 1022,0 32 0 0,0
23.09.2018 06:00:00 19,9 17,9 19,6 21,0 20,6 11 6 16 8 SW 1022,1 37 0 0,0
23.09.2018 05:00:00 19,8 17,9 19,3 21,0 20,6 11 6 16 9 SW 1022,3 32 0 0,0
23.09.2018 04:00:00 19,3 17,6 19,1 21,0 20,6 9 5 20 11 SSW 1022,8 17 0 0,0
23.09.2018 03:00:00 19,2 17,7 18,2 21,0 20,6 11 6 14 7 SSW 1023,2 30 0 0,0
23.09.2018 02:00:00 18,7 16,8 18,3 21,0 20,6 9 5 20 11 SSW 1023,2 39 0 0,0
23.09.2018 01:00:00 19,6 17,2 19,0 21,0 20,6 16 8 20 11 SSW 1023,4 36 0 0,0
23.09.2018 00:00:00 19,5 16,0 18,2 21,0 20,6 13 7 17 9 SW 1023,5 49 0 0,0
22.09.2018 23:00:00 19,0 14,9 18,1 20,9 20,6 8 5 12 6 WSW 1023,4 52 0 0,0
22.09.2018 22:00:00 19,6 14,8 18,6 20,9 20,6 9 5 14 8 WSW 1023,3 51 0 0,0
22.09.2018 21:00:00 20,7 14,8 19,5 20,8 20,6 8 4 13 7 WSW 1023,0 54 0 0,0
22.09.2018 20:00:00 22,1 14,7 21,2 20,8 20,6 12 6 29 16 WSW 1022,4 57 37 0,0
22.09.2018 19:00:00 23,9 14,6 24,4 20,7 20,6 20 11 31 17 WSW 1022,1 52 42 0,0
22.09.2018 18:00:00 24,6 12,9 25,9 20,7 20,6 22 12 35 19 WSW 1022,1 31 60 0,0
22.09.2018 17:00:00 24,5 9,2 27,3 20,6 20,6 22 12 32 18 WSW 1022,5 37 60 0,0
22.09.2018 16:00:00 23,9 5,3 28,0 20,7 20,7 18 10 32 17 SSW 1022,7 44 60 0,0
22.09.2018 15:00:00 22,7 7,3 26,0 20,7 20,6 11 6 26 14 SSW 1023,5 42 58 0,0
22.09.2018 14:00:00 20,9 7,1 23,9 20,8 20,7 14 7 27 14 S 1024,1 41 46 0,0
22.09.2018 13:00:00 20,2 7,2 25,4 20,8 20,7 8 5 21 11 S 1024,3 42 60 0,0
22.09.2018 12:00:00 19,2 7,0 23,6 21,0 20,7 12 6 20 11 SSE 1024,4 37 60 0,0
22.09.2018 11:00:00 17,0 10,4 17,6 21,1 20,6 7 4 12 7 E 1024,6 33 60 0,0
22.09.2018 10:00:00 13,7 10,1 13,8 21,2 20,6 6 3 10 6 E 1024,7 31 34 0,0
22.09.2018 09:00:00 11,9 10,8 9,9 21,3 20,6 4 2 9 5 E 1024,6 21 35 0,0
22.09.2018 08:00:00 10,2 8,8 9,5 21,4 20,7 3 2 4 2 ESE 1024,7 30 0 0,0
22.09.2018 07:00:00 10,3 9,2 8,2 21,5 20,6 0 0 10 6 N 1024,7 51 0 0,0
22.09.2018 06:00:00 10,3 8,7 8,2 21,6 20,7 0 0 3 2 N 1024,7 39 0 0,0
22.09.2018 05:00:00 11,1 9,5 8,9 21,7 20,6 2 1 4 2 N 1024,7 41 0 0,0
22.09.2018 04:00:00 10,9 9,3 9,3 21,8 20,6 4 2 7 4 E 1025,1 42 0 0,0
22.09.2018 03:00:00 11,0 9,4 9,2 21,8 20,6 4 2 7 4 E 1025,3 39 0 0,0
22.09.2018 02:00:00 11,4 9,6 9,7 21,9 20,6 2 1 5 3 SSW 1025,5 41 0 0,0
22.09.2018 01:00:00 12,3 9,8 10,7 22,0 20,7 0 0 6 3 N 1025,7 42 0 0,0
22.09.2018 00:00:00 13,0 9,8 10,9 22,0 20,6 2 1 4 2 SW 1025,4 49 0 0,0
21.09.2018 23:00:00 14,1 9,7 12,5 22,1 20,6 4 2 8 4 W 1024,8 51 0 0,0
21.09.2018 22:00:00 15,0 10,0 14,1 22,1 20,6 6 3 10 6 W 1024,5 51 0 0,0
21.09.2018 21:00:00 15,8 10,1 15,0 22,1 20,7 7 4 13 7 W 1023,8 43 0 0,0
21.09.2018 20:00:00 17,0 10,4 16,2 22,2 20,6 9 5 19 10 WNW 1023,1 49 0 0,0
21.09.2018 19:00:00 18,6 9,9 18,9 22,2 20,6 16 9 27 15 WNW 1022,6 34 46 0,0
21.09.2018 18:00:00 19,4 9,6 20,8 22,2 20,6 19 10 32 17 WNW 1022,1 48 7 0,0
21.09.2018 17:00:00 20,2 11,4 21,8 22,3 20,7 18 10 29 16 NW 1021,6 20 31 0,0
21.09.2018 16:00:00 20,0 12,7 21,6 22,3 20,6 17 9 26 14 WNW 1021,1 15 20 0,0
21.09.2018 15:00:00 18,6 15,1 18,9 22,4 20,6 9 5 16 9 W 1021,1 20 3 0,0
21.09.2018 14:00:00 17,4 14,1 17,3 22,4 20,6 6 3 13 7 WNW 1020,7 41 0 0,0
21.09.2018 13:00:00 16,3 14,1 15,5 22,4 20,6 4 2 13 7 WNW 1020,5 39 0 0,2
21.09.2018 12:00:00 15,3 14,2 15,6 22,5 20,6 13 7 24 13 NNW 1020,0 7 0 4,9
21.09.2018 11:00:00 16,8 15,7 16,7 22,5 20,6 13 7 38 21 NW 1018,8 9 0 1,4
21.09.2018 10:00:00 20,0 18,1 19,2 22,6 20,6 23 12 35 19 SW 1016,9 4,8 0 0,0
21.09.2018 09:00:00 19,8 17,9 19,0 22,6 20,6 20 11 29 16 SSW 1016,3 17 0 0,0
21.09.2018 08:00:00 19,3 17,8 18,4 22,7 20,6 17 9 24 13 SSW 1016,0 13 0 0,0
21.09.2018 07:00:00 19,0 17,8 18,2 22,7 20,6 16 9 25 13 SW 1015,6 12 0 0,0
21.09.2018 06:00:00 18,7 17,7 17,6 22,8 20,6 15 8 22 12 SW 1015,3 12 0 0,0
21.09.2018 05:00:00 18,2 17,4 17,2 22,8 20,6 9 5 16 8 SW 1015,5 8 0 0,0
21.09.2018 04:00:00 17,4 16,8 17,3 22,8 20,6 7 4 14 8 SW 1015,8 3,7 0 0,0
21.09.2018 03:00:00 17,1 16,5 13,6 22,8 20,6 9 5 15 8 SSW 1015,7 11 0 0,0
21.09.2018 02:00:00 17,0 15,7 15,2 22,8 20,6 2 1 8 5 SSW 1016,0 11 0 0,0
21.09.2018 01:00:00 17,5 15,8 16,3 22,7 20,6 9 5 11 6 W 1016,3 14 0 0,0
21.09.2018 00:00:00 18,7 15,9 17,5 22,7 20,6 5 3 9 5 SW 1015,9 22 0 0,0
20.09.2018 23:00:00 19,7 16,2 18,6 22,6 20,6 6 4 11 6 W 1016,2 26 0 0,0
20.09.2018 22:00:00 20,6 16,2 19,7 22,5 20,6 9 5 16 9 WNW 1016,1 28 0 0,0
20.09.2018 21:00:00 21,8 15,9 21,1 22,4 20,6 10 5 21 11 WNW 1015,7 33 0 0,0
20.09.2018 20:00:00 23,6 15,6 23,2 22,3 20,6 15 8 30 16 WNW 1015,7 35 2 0,0
20.09.2018 19:00:00 27,7 16,3 27,7 22,2 20,6 15 8 25 13 WNW 1015,6 32 45 0,0
20.09.2018 18:00:00 29,2 16,0 31,4 22,1 20,6 10 5 18 10 WNW 1015,7 26 60 0,0
20.09.2018 17:00:00 28,9 16,1 32,6 22,0 20,6 10 5 22 12 W 1016,4 52 60 0,0
20.09.2018 16:00:00 28,4 16,0 33,5 22,0 20,6 4 2 17 9 SSW 1017,1 42 60 0,0
20.09.2018 15:00:00 27,5 15,8 33,3 22,0 20,6 9 5 18 10 SSW 1018,1 43 60 0,0
20.09.2018 14:00:00 26,2 15,3 32,6 22,0 20,6 6 4 17 9 W 1018,9 36 60 0,0
20.09.2018 13:00:00 25,7 15,1 31,1 22,1 20,6 9 5 16 9 S 1019,8 32 60 0,0
20.09.2018 12:00:00 24,4 14,8 30,0 22,2 20,6 4 2 11 6 WSW 1020,5 45 60 0,0
20.09.2018 11:00:00 23,2 15,0 21,5 22,2 20,6 3 1 7 4 E 1021,0 27 51 0,0
20.09.2018 10:00:00 19,8 15,0 19,6 22,2 20,6 2 1 5 3 E 1021,1 20 0 0,0
20.09.2018 09:00:00 18,4 14,9 17,6 22,3 20,6 0 0 8 4 N 1020,9 19 0 0,0
20.09.2018 08:00:00 17,5 14,8 17,0 22,4 20,6 2 1 4 2 N 1020,8 19 0 0,0
20.09.2018 07:00:00 17,1 14,6 16,5 22,4 20,6 2 1 5 3 E 1020,9 16 0 0,0
20.09.2018 06:00:00 16,3 14,3 15,9 22,5 20,6 3 2 5 3 E 1021,4 19 0 0,0
20.09.2018 05:00:00 15,8 14,2 14,5 22,5 20,6 3 2 6 3 E 1021,8 15 0 0,0
20.09.2018 04:00:00 15,3 13,7 13,7 22,5 20,6 5 3 6 3 ESE 1021,9 14 0 0,0
20.09.2018 03:00:00 15,5 13,5 13,8 22,5 20,6 0 0 4 2 N 1022,1 14 0 0,0
20.09.2018 02:00:00 16,8 14,6 15,1 22,5 20,6 2 1 5 3 WNW 1022,1 18 0 0,0
20.09.2018 01:00:00 17,2 14,5 14,6 22,5 20,6 0 0 7 4 N 1022,2 19 0 0,0
20.09.2018 00:00:00 18,3 15,0 16,4 22,4 20,6 5 3 9 5 NNW 1022,2 23 0 0,0
19.09.2018 23:00:00 19,4 15,3 18,3 22,4 20,6 5 3 12 7 NNW 1022,1 24 0 0,0
19.09.2018 22:00:00 20,5 15,5 19,7 22,3 20,6 11 6 19 10 NW 1021,8 27 0 0,0
19.09.2018 21:00:00 21,9 14,5 21,0 22,2 20,6 10 6 16 9 NW 1021,2 36 0 0,0
19.09.2018 20:00:00 23,9 14,0 22,9 22,2 20,6 8 4 16 9 NW 1021,0 39 43 0,0
19.09.2018 19:00:00 25,8 14,3 26,5 22,1 20,6 12 6 22 12 WNW 1021,0 32 60 0,0
19.09.2018 18:00:00 26,0 14,1 27,5 22,0 20,6 11 6 24 13 W 1020,9 35 48 0,0
19.09.2018 17:00:00 26,7 14,1 29,1 21,9 20,6 16 8 28 15 W 1021,1 18 51 0,0
19.09.2018 16:00:00 26,6 15,0 28,9 21,9 20,6 16 8 28 15 WNW 1021,4 60 21 0,0
19.09.2018 15:00:00 26,0 14,5 29,6 21,9 20,6 14 7 28 15 W 1021,8 31 18 0,0
19.09.2018 14:00:00 25,6 14,7 29,7 21,9 20,6 14 7 23 13 NW 1022,0 28 23 0,0
19.09.2018 13:00:00 25,6 14,4 32,2 22,0 20,6 8 4 18 10 SW 1022,0 47 60 0,0
19.09.2018 12:00:00 24,9 14,4 29,7 22,1 20,6 4 2 16 9 S 1022,0 38 60 0,0
19.09.2018 11:00:00 22,9 14,7 24,1 22,1 20,6 8 4 13 7 E 1021,7 37 58 0,0
19.09.2018 10:00:00 19,7 17,1 19,0 22,2 20,6 5 3 9 5 E 1021,6 30 21 0,0
19.09.2018 09:00:00 17,2 16,1 15,3 22,2 20,6 2 1 6 3 ESE 1021,3 16 15 0,0

tt = Température de l'air
td = dewpoint
tt 5cm = Température de l'air 5cm
tt -20cm = Température de l'air -20cm
tt -100cm = Température de l'air -100cm
ff = Vitesse du vent
fx = gusts
dd = Direction du vent
ppp = reduced air pressure
vv = visibility
sd = Ensoleillement
rr = Quantités de précipitations

stations d'obs. à proximité